• In India
  • List of Countries
  • For 7 days
  • Water Temperature
  • Satellite Maps
  • Weather Map
  • Weather Widgets
  • user-avatar
    Login

    Hourly Weather Ischgl

    Today, 18 December, Tuesday

    Time Temperature Precipitation Wind Pressure Humidity
    00:00 -14°C° 0 mm 2 mps 574 mmHg 93%
    01:00 -12°C° 0 mm 1 mps 573 mmHg 93%
    02:00 -15°C° 0 mm 2 mps 573 mmHg 89%
    03:00 -15°C° 0 mm 2 mps 573 mmHg 86%
    04:00 -15°C° 0 mm 2 mps 572 mmHg 82%
    05:00 -15°C° 0 mm 2 mps 572 mmHg 74%
    06:00 -15°C° 0 mm 2 mps 572 mmHg 66%
    07:00 -14°C° 0 mm 1 mps 572 mmHg 65%
    08:00 -12°C° 0 mm 1 mps 573 mmHg 62%
    09:00 -10°C° 0 mm 1 mps 574 mmHg 59%
    10:00 -10°C° 0 mm 2 mps 574 mmHg 56%
    11:00 -8°C° 0 mm 2 mps 575 mmHg 58%
    12:00 -7°C° 0 mm 2 mps 575 mmHg 60%
    13:00 -5°C° 0 mm 2 mps 576 mmHg 62%
    14:00 -6°C° 0 mm 2 mps 575 mmHg 62%
    15:00 -8°C° 0 mm 2 mps 574 mmHg 63%
    16:00 -9°C° 0 mm 2 mps 573 mmHg 63%
    17:00 -10°C° 0 mm 2 mps 573 mmHg 60%
    18:00 -12°C° 0 mm 2 mps 572 mmHg 57%
    19:00 -12°C° 0 mm 2 mps 572 mmHg 54%
    20:00 -13°C° 0 mm 3 mps 572 mmHg 53%
    21:00 -13°C° 0 mm 3 mps 572 mmHg 52%
    22:00 -13°C° 0 mm 3 mps 572 mmHg 50%
    23:00 -13°C° 0 mm 3 mps 572 mmHg 50%

    Tomorrow, 19 December, Wednesday

    Time Temperature Precipitation Wind Pressure Humidity
    00:00 -13°C° 0 mm 3 mps 572 mmHg 50%
    01:00 -13°C° 0 mm 3 mps 571 mmHg 50%
    02:00 -12°C° 0 mm 3 mps 571 mmHg 51%
    03:00 -12°C° 0 mm 3 mps 571 mmHg 52%
    04:00 -12°C° 0 mm 3 mps 571 mmHg 52%
    05:00 -12°C° 0 mm 3 mps 571 mmHg 53%
    06:00 -9°C° 0 mm 2 mps 571 mmHg 54%
    07:00 -9°C° 0 mm 2 mps 572 mmHg 56%
    08:00 -8°C° 0 mm 2 mps 572 mmHg 58%
    09:00 -8°C° 0 mm 2 mps 572 mmHg 61%
    10:00 -7°C° 0 mm 2 mps 573 mmHg 63%
    11:00 -6°C° 0 mm 2 mps 573 mmHg 66%
    12:00 -6°C° 0 mm 2 mps 573 mmHg 68%
    13:00 -5°C° 0 mm 2 mps 573 mmHg 70%
    14:00 -6°C° 0 mm 2 mps 572 mmHg 73%
    15:00 -7°C° 0 mm 2 mps 571 mmHg 76%
    16:00 -8°C° 0 mm 2 mps 570 mmHg 78%
    17:00 -8°C° 0 mm 2 mps 570 mmHg 79%
    18:00 -9°C° 0 mm 2 mps 570 mmHg 81%
    19:00 -9°C° 0 mm 2 mps 570 mmHg 82%
    20:00 -9°C° 0.2 mm 2 mps 570 mmHg 84%
    21:00 -9°C° 0.2 mm 2 mps 570 mmHg 87%
    22:00 -9°C° 0.2 mm 2 mps 570 mmHg 89%
    23:00 -8°C° 0.5 mm 1 mps 571 mmHg 91%

    Day after tomorrow, 20 December, Thursday

    Time Temperature Precipitation Wind Pressure Humidity
    00:00 -8°C° 0.5 mm 1 mps 571 mmHg 92%
    01:00 -7°C° 0.5 mm 1 mps 571 mmHg 93%
    02:00 -7°C° 0.5 mm 1 mps 571 mmHg 93%
    03:00 -7°C° 0.5 mm 1 mps 571 mmHg 93%
    04:00 -7°C° 0.5 mm 1 mps 571 mmHg 94%
    05:00 -8°C° 0.2 mm 1 mps 571 mmHg 94%
    06:00 -8°C° 0.2 mm 1 mps 571 mmHg 94%
    07:00 -8°C° 0.2 mm 1 mps 571 mmHg 94%
    08:00 -7°C° 0.2 mm 1 mps 571 mmHg 93%
    09:00 -7°C° 0.2 mm 1 mps 572 mmHg 92%
    10:00 -6°C° 0.2 mm 1 mps 572 mmHg 91%
    11:00 -6°C° 0.2 mm 1 mps 572 mmHg 90%
    12:00 -4°C° 0.2 mm 1 mps 572 mmHg 88%
    13:00 -4°C° 0.2 mm 1 mps 572 mmHg 87%
    14:00 -6°C° 0.2 mm 1 mps 572 mmHg 88%
    15:00 -6°C° 0.2 mm 1 mps 572 mmHg 89%
    16:00 -7°C° 0.2 mm 1 mps 572 mmHg 91%
    17:00 -8°C° 0.1 mm 1 mps 572 mmHg 90%
    18:00 -9°C° 0.1 mm 1 mps 572 mmHg 90%
    19:00 -9°C° 0.1 mm 1 mps 572 mmHg 89%
    20:00 -10°C° 0.1 mm 1 mps 572 mmHg 87%
    21:00 -10°C° 0.1 mm 1 mps 572 mmHg 84%
    22:00 -13°C° 0.1 mm 2 mps 572 mmHg 81%
    23:00 -13°C° 0 mm 2 mps 572 mmHg 77%

    21 December, Friday

    Time Temperature Precipitation Wind Pressure Humidity
    00:00 -13°C° 0 mm 2 mps 572 mmHg 74%
    01:00 -13°C° 0 mm 2 mps 572 mmHg 70%
    02:00 -13°C° 0 mm 2 mps 572 mmHg 68%
    03:00 -13°C° 0 mm 2 mps 572 mmHg 67%
    04:00 -13°C° 0 mm 2 mps 572 mmHg 65%
    05:00 -13°C° 0 mm 2 mps 572 mmHg 64%
    06:00 -13°C° 0 mm 2 mps 572 mmHg 62%
    07:00 -12°C° 0 mm 2 mps 572 mmHg 61%
    08:00 -12°C° 0 mm 3 mps 573 mmHg 62%
    09:00 -9°C° 0 mm 3 mps 573 mmHg 63%
    10:00 -8°C° 0 mm 3 mps 574 mmHg 64%
    11:00 -7°C° 0 mm 3 mps 574 mmHg 66%
    12:00 -6°C° 0 mm 3 mps 574 mmHg 67%
    13:00 -5°C° 0 mm 3 mps 574 mmHg 69%
    14:00 -5°C° 0.1 mm 3 mps 574 mmHg 71%
    15:00 -6°C° 0.1 mm 3 mps 574 mmHg 73%
    16:00 -6°C° 0.1 mm 3 mps 573 mmHg 75%
    17:00 -7°C° 0.2 mm 3 mps 573 mmHg 74%
    18:00 -7°C° 0.2 mm 3 mps 573 mmHg 72%
    19:00 -7°C° 0.2 mm 3 mps 573 mmHg 70%
    20:00 -6°C° 0.2 mm 2 mps 573 mmHg 72%
    21:00 -6°C° 0.2 mm 2 mps 573 mmHg 73%
    22:00 -5°C° 0.2 mm 2 mps 573 mmHg 74%
    23:00 -5°C° 0.3 mm 2 mps 574 mmHg 76%

    22 December, Saturday

    Time Temperature Precipitation Wind Pressure Humidity
    00:00 -5°C° 0.3 mm 2 mps 574 mmHg 78%
    01:00 -4°C° 0.3 mm 2 mps 574 mmHg 81%
    02:00 -4°C° 0.1 mm 2 mps 574 mmHg 83%
    03:00 -4°C° 0.1 mm 2 mps 574 mmHg 85%
    04:00 -5°C° 0.1 mm 2 mps 574 mmHg 87%
    05:00 -5°C° 0 mm 2 mps 574 mmHg 87%
    06:00 -5°C° 0 mm 2 mps 574 mmHg 88%
    07:00 -6°C° 0 mm 2 mps 573 mmHg 89%
    08:00 -5°C° 0.1 mm 2 mps 574 mmHg 88%
    09:00 -4°C° 0.1 mm 2 mps 574 mmHg 87%
    10:00 -3°C° 0.1 mm 2 mps 575 mmHg 85%
    11:00 -3°C° 0.4 mm 2 mps 575 mmHg 87%
    12:00 -2°C° 0.4 mm 2 mps 575 mmHg 88%
    13:00 -2°C° 0.4 mm 2 mps 575 mmHg 89%
    14:00 -2°C° 0.1 mm 2 mps 575 mmHg 90%
    15:00 -3°C° 0.1 mm 2 mps 574 mmHg 90%
    16:00 -3°C° 0.1 mm 2 mps 574 mmHg 90%
    17:00 -3°C° 0 mm 2 mps 574 mmHg 90%
    18:00 -4°C° 0 mm 2 mps 574 mmHg 91%
    19:00 -4°C° 0 mm 2 mps 575 mmHg 91%
    20:00 -4°C° 0 mm 2 mps 575 mmHg 90%
    21:00 -5°C° 0 mm 2 mps 575 mmHg 90%
    22:00 -5°C° 0 mm 2 mps 575 mmHg 89%
    23:00 -5°C° 0.2 mm 2 mps 575 mmHg 88%

    23 December, Sunday

    Time Temperature Precipitation Wind Pressure Humidity
    00:00 -5°C° 0.2 mm 2 mps 575 mmHg 86%
    01:00 -5°C° 0.2 mm 2 mps 575 mmHg 85%
    02:00 -5°C° 0.2 mm 2 mps 575 mmHg 85%
    03:00 -6°C° 0.2 mm 2 mps 575 mmHg 84%
    04:00 -6°C° 0.2 mm 2 mps 575 mmHg 84%
    05:00 -6°C° 0.6 mm 2 mps 575 mmHg 85%
    06:00 -6°C° 0.6 mm 2 mps 575 mmHg 86%
    07:00 -5°C° 0.6 mm 2 mps 575 mmHg 87%
    08:00 -5°C° 0.8 mm 2 mps 576 mmHg 88%
    09:00 -4°C° 0.8 mm 2 mps 576 mmHg 88%
    10:00 -4°C° 0.8 mm 2 mps 577 mmHg 89%
    11:00 -3°C° 0.5 mm 2 mps 577 mmHg 91%
    12:00 -1°C° 0.5 mm 1 mps 577 mmHg 92%
    13:00 0°C° 0.5 mm 1 mps 577 mmHg 93%
    14:00 -1°C° 0.2 mm 1 mps 577 mmHg 93%
    15:00 -3°C° 0.2 mm 2 mps 577 mmHg 92%
    16:00 -3°C° 0.2 mm 2 mps 577 mmHg 91%
    17:00 -4°C° 0.2 mm 2 mps 577 mmHg 90%
    18:00 -4°C° 0.2 mm 2 mps 577 mmHg 89%
    19:00 -4°C° 0.2 mm 2 mps 577 mmHg 87%
    20:00 -4°C° 0.1 mm 2 mps 577 mmHg 86%
    21:00 -4°C° 0.1 mm 2 mps 577 mmHg 85%
    22:00 -4°C° 0.1 mm 2 mps 577 mmHg 84%
    23:00 -5°C° 0 mm 2 mps 577 mmHg 82%
    Show more